Time,TemperatureF,DewpointF,PressureIn,WindDirection,WindDirectionDegrees,WindSpeedMPH,WindSpeedGustMPH,Humidity,HourlyPrecipIn,Conditions,Clouds,dailyrainin,SolarRadiationWatts/m^2,SoftwareType,DateUTC
2013-07-06 00:01:00,53.0,51.0,-100.00,NNE,15,6.0,13.0,94,0.00,,,0.00,0.000000,,2013-07-06 07:01:00,
2013-07-06 00:12:00,53.0,51.0,-100.00,NNE,15,6.0,13.0,94,0.00,,,0.00,0.000000,,2013-07-06 07:12:00,
2013-07-06 00:44:00,53.0,51.0,-100.00,NNE,20,6.0,11.0,93,0.00,,,0.00,0.000000,,2013-07-06 07:44:00,
2013-07-06 00:52:00,53.0,51.0,-100.00,NNE,20,6.0,11.0,93,0.00,,,0.00,0.000000,,2013-07-06 07:52:00,
2013-07-06 01:02:00,53.0,51.0,-100.00,NNE,20,6.0,11.0,93,0.00,,,0.00,0.000000,,2013-07-06 08:02:00,
2013-07-06 01:11:00,53.0,51.0,-100.00,NNE,20,6.0,11.0,93,0.00,,,0.00,0.000000,,2013-07-06 08:11:00,
2013-07-06 01:43:00,52.0,50.0,-100.00,NNE,18,5.0,10.0,92,0.00,,,0.00,0.000000,,2013-07-06 08:43:00,
2013-07-06 01:54:00,52.0,50.0,-100.00,NNE,18,5.0,10.0,92,0.00,,,0.00,0.000000,,2013-07-06 08:54:00,
2013-07-06 02:02:00,52.0,50.0,-100.00,NNE,18,5.0,10.0,92,0.00,,,0.00,0.000000,,2013-07-06 09:02:00,
2013-07-06 02:11:00,52.0,50.0,-100.00,NNE,18,5.0,10.0,92,0.00,,,0.00,0.000000,,2013-07-06 09:11:00,
2013-07-06 02:43:00,52.0,50.0,-100.00,NNE,12,5.0,9.0,92,0.00,,,0.00,0.000000,,2013-07-06 09:43:00,
2013-07-06 02:52:00,52.0,50.0,-100.00,NNE,12,5.0,9.0,92,0.00,,,0.00,0.000000,,2013-07-06 09:52:00,
2013-07-06 03:02:00,52.0,50.0,-100.00,NNE,12,5.0,9.0,92,0.00,,,0.00,0.000000,,2013-07-06 10:02:00,
2013-07-06 03:11:00,52.0,50.0,-100.00,NNE,12,5.0,9.0,92,0.00,,,0.00,0.000000,,2013-07-06 10:11:00,
2013-07-06 03:43:00,51.0,49.0,-100.00,NNE,18,4.0,9.0,94,0.00,,,0.00,0.000000,,2013-07-06 10:43:00,
2013-07-06 03:53:00,51.0,49.0,-100.00,NNE,18,4.0,9.0,94,0.00,,,0.00,0.000000,,2013-07-06 10:53:00,
2013-07-06 04:01:00,51.0,49.0,-100.00,NNE,18,4.0,9.0,94,0.00,,,0.00,0.000000,,2013-07-06 11:01:00,
2013-07-06 04:11:00,51.0,49.0,-100.00,NNE,18,4.0,9.0,94,0.00,,,0.00,0.000000,,2013-07-06 11:11:00,
2013-07-06 04:43:00,51.0,50.0,-100.00,NNE,15,4.0,8.0,95,0.00,,,0.00,0.000000,,2013-07-06 11:43:00,
2013-07-06 04:53:00,51.0,50.0,-100.00,NNE,15,4.0,8.0,95,0.00,,,0.00,0.000000,,2013-07-06 11:53:00,
2013-07-06 05:01:00,51.0,50.0,-100.00,NNE,15,4.0,8.0,95,0.00,,,0.00,0.000000,,2013-07-06 12:01:00,
2013-07-06 05:11:00,51.0,50.0,-100.00,NNE,15,4.0,8.0,95,0.00,,,0.00,0.000000,,2013-07-06 12:11:00,
2013-07-06 05:43:00,50.0,49.0,-100.00,North,7,4.0,7.0,95,0.00,,,0.00,0.000000,,2013-07-06 12:43:00,
2013-07-06 05:52:00,50.0,49.0,-100.00,North,7,4.0,7.0,95,0.00,,,0.00,0.000000,,2013-07-06 12:52:00,
2013-07-06 06:01:00,50.0,49.0,-100.00,North,7,4.0,7.0,95,0.00,,,0.00,0.000000,,2013-07-06 13:01:00,
2013-07-06 06:11:00,50.0,49.0,-100.00,North,7,4.0,7.0,95,0.00,,,0.00,0.000000,,2013-07-06 13:11:00,
2013-07-06 06:43:00,50.0,49.0,-100.00,NNE,13,4.0,7.0,97,0.00,,,0.00,6.000000,,2013-07-06 13:43:00,
2013-07-06 06:52:00,50.0,49.0,-100.00,NNE,13,4.0,7.0,97,0.00,,,0.00,6.000000,,2013-07-06 13:52:00,
2013-07-06 07:02:00,50.0,49.0,-100.00,NNE,13,4.0,7.0,97,0.00,,,0.00,6.000000,,2013-07-06 14:02:00,
2013-07-06 07:11:00,50.0,49.0,-100.00,NNE,13,4.0,7.0,97,0.00,,,0.00,6.000000,,2013-07-06 14:11:00,
2013-07-06 07:42:00,53.0,50.0,-100.00,NNE,22,3.0,6.0,90,0.00,,,0.00,120.000000,,2013-07-06 14:42:00,
2013-07-06 07:53:00,53.0,50.0,-100.00,NNE,22,3.0,6.0,90,0.00,,,0.00,120.000000,,2013-07-06 14:53:00,
2013-07-06 08:02:00,53.0,50.0,-100.00,NNE,22,3.0,6.0,90,0.00,,,0.00,120.000000,,2013-07-06 15:02:00,
2013-07-06 08:12:00,53.0,50.0,-100.00,NNE,22,3.0,6.0,90,0.00,,,0.00,120.000000,,2013-07-06 15:12:00,
2013-07-06 08:43:00,58.0,51.0,-100.00,NNE,33,4.0,7.0,78,0.00,,,0.00,342.000000,,2013-07-06 15:43:00,
2013-07-06 08:53:00,58.0,51.0,-100.00,NNE,33,4.0,7.0,78,0.00,,,0.00,342.000000,,2013-07-06 15:53:00,
2013-07-06 09:12:00,58.0,51.0,-100.00,NNE,33,4.0,7.0,78,0.00,,,0.00,342.000000,,2013-07-06 16:12:00,
2013-07-06 09:13:00,61.0,52.0,-100.00,North,6,4.0,10.0,72,0.00,,,0.00,535.000000,,2013-07-06 16:13:00,
2013-07-06 09:58:00,61.0,52.0,-100.00,North,6,4.0,10.0,72,0.00,,,0.00,535.000000,,2013-07-06 16:58:00,
2013-07-06 10:05:00,61.0,52.0,-100.00,North,6,4.0,10.0,72,0.00,,,0.00,535.000000,,2013-07-06 17:05:00,
2013-07-06 10:13:00,63.0,53.0,-100.00,NNE,19,5.0,9.0,70,0.00,,,0.00,679.000000,,2013-07-06 17:13:00,
2013-07-06 10:57:00,63.0,53.0,-100.00,NNE,19,5.0,9.0,70,0.00,,,0.00,679.000000,,2013-07-06 17:57:00,
2013-07-06 11:05:00,63.0,53.0,-100.00,NNE,19,5.0,9.0,70,0.00,,,0.00,679.000000,,2013-07-06 18:05:00,
2013-07-06 11:13:00,64.0,52.0,-100.00,NNE,16,5.0,9.0,66,0.00,,,0.00,894.000000,,2013-07-06 18:13:00,
2013-07-06 12:05:00,64.0,52.0,-100.00,NNE,16,5.0,9.0,66,0.00,,,0.00,894.000000,,2013-07-06 19:05:00,
2013-07-06 12:13:00,64.0,52.0,-100.00,NNE,15,6.0,13.0,66,0.00,,,0.00,998.000000,,2013-07-06 19:13:00,
2013-07-06 12:57:00,64.0,52.0,-100.00,NNE,15,6.0,13.0,66,0.00,,,0.00,998.000000,,2013-07-06 19:57:00,
2013-07-06 13:02:00,64.0,52.0,-100.00,NNE,15,6.0,13.0,66,0.00,,,0.00,998.000000,,2013-07-06 20:02:00,
2013-07-06 13:13:00,63.0,51.0,-100.00,NNE,19,7.0,15.0,66,0.00,,,0.00,1034.000000,,2013-07-06 20:13:00,
2013-07-06 13:51:00,63.0,51.0,-100.00,NNE,19,7.0,15.0,66,0.00,,,0.00,1034.000000,,2013-07-06 20:51:00,
2013-07-06 14:05:00,63.0,51.0,-100.00,NNE,19,7.0,15.0,66,0.00,,,0.00,1034.000000,,2013-07-06 21:05:00,
2013-07-06 14:13:00,63.0,52.0,-100.00,NNE,18,7.0,15.0,67,0.00,,,0.00,1042.000000,,2013-07-06 21:13:00,
2013-07-06 15:13:00,63.0,53.0,-100.00,NNE,13,8.0,15.0,70,0.00,,,0.00,978.000000,,2013-07-06 22:13:00,
2013-07-06 15:58:00,63.0,53.0,-100.00,NNE,13,8.0,15.0,70,0.00,,,0.00,978.000000,,2013-07-06 22:58:00,
2013-07-06 16:05:00,63.0,53.0,-100.00,NNE,13,8.0,15.0,70,0.00,,,0.00,978.000000,,2013-07-06 23:05:00,
2013-07-06 16:13:00,62.0,54.0,-100.00,NNE,13,8.0,17.0,75,0.00,,,0.00,860.000000,,2013-07-06 23:13:00,
2013-07-06 16:57:00,62.0,54.0,-100.00,NNE,13,8.0,17.0,75,0.00,,,0.00,860.000000,,2013-07-06 23:57:00,
2013-07-06 17:05:00,62.0,54.0,-100.00,NNE,13,8.0,17.0,75,0.00,,,0.00,860.000000,,2013-07-07 00:05:00,
2013-07-06 18:48:00,60.0,55.0,-100.00,NNE,17,8.0,17.0,83,-99.99,,,0.00,519.000000,,2013-07-07 01:48:00,
2013-07-06 19:04:00,60.0,55.0,-100.00,NNE,17,8.0,17.0,83,-99.99,,,0.00,519.000000,,2013-07-07 02:04:00,
2013-07-06 19:11:00,60.0,55.0,-100.00,NNE,17,8.0,17.0,83,-99.99,,,0.00,519.000000,,2013-07-07 02:11:00,
2013-07-06 19:58:00,58.0,54.0,-100.00,North,5,7.0,14.0,88,0.00,,,0.00,247.000000,,2013-07-07 02:58:00,
2013-07-06 20:03:00,58.0,54.0,-100.00,North,5,7.0,14.0,88,0.00,,,0.00,247.000000,,2013-07-07 03:03:00,
2013-07-06 20:11:00,58.0,54.0,-100.00,North,5,7.0,14.0,88,0.00,,,0.00,247.000000,,2013-07-07 03:11:00,
2013-07-06 20:52:00,56.0,53.0,-100.00,NNE,13,6.0,13.0,89,0.00,,,0.00,71.000000,,2013-07-07 03:52:00,
2013-07-06 21:01:00,56.0,53.0,-100.00,NNE,13,6.0,13.0,89,0.00,,,0.00,71.000000,,2013-07-07 04:01:00,
2013-07-06 21:11:00,56.0,53.0,-100.00,NNE,13,6.0,13.0,89,0.00,,,0.00,71.000000,,2013-07-07 04:11:00,
2013-07-06 21:31:00,55.0,52.0,-100.00,NNE,15,6.0,13.0,91,0.00,,,0.00,8.000000,,2013-07-07 04:31:00,
2013-07-06 21:41:00,55.0,52.0,-100.00,NNE,15,6.0,13.0,91,0.00,,,0.00,8.000000,,2013-07-07 04:41:00,
2013-07-06 21:51:00,55.0,52.0,-100.00,NNE,15,6.0,13.0,91,0.00,,,0.00,8.000000,,2013-07-07 04:51:00,
2013-07-06 22:01:00,55.0,52.0,-100.00,NNE,15,6.0,13.0,91,0.00,,,0.00,8.000000,,2013-07-07 05:01:00,
2013-07-06 22:11:00,55.0,52.0,-100.00,NNE,15,6.0,13.0,91,0.00,,,0.00,8.000000,,2013-07-07 05:11:00,
2013-07-06 22:31:00,55.0,53.0,-100.00,NNE,16,6.0,11.0,92,0.00,,,-99.99,0.000000,,2013-07-07 05:31:00,
2013-07-06 22:41:00,55.0,53.0,-100.00,NNE,16,6.0,11.0,92,0.00,,,-99.99,0.000000,,2013-07-07 05:41:00,
2013-07-06 22:51:00,55.0,53.0,-100.00,NNE,16,6.0,11.0,92,0.00,,,-99.99,0.000000,,2013-07-07 05:51:00,
2013-07-06 23:01:00,55.0,53.0,-100.00,NNE,16,6.0,11.0,92,0.00,,,-99.99,0.000000,,2013-07-07 06:01:00,
2013-07-06 23:11:00,55.0,53.0,-100.00,NNE,16,6.0,11.0,92,0.00,,,-99.99,0.000000,,2013-07-07 06:11:00,
2013-07-06 23:43:00,55.0,53.0,-100.00,NNE,21,5.0,10.0,93,0.00,,,0.00,0.000000,,2013-07-07 06:43:00,
2013-07-06 23:52:00,55.0,53.0,-100.00,NNE,21,5.0,10.0,93,0.00,,,0.00,0.000000,,2013-07-07 06:52:00,